Location: �perlecques
(50.8057°N, 2.1521°E)
Time: 17:10:51
(UTC+00:00)

Vanguard 1 - All Passes

Search period start: 27 July 2021 00:00
Search period end: 06 August 2021 00:00
Orbit: 651 x 3832 km, 34.2° (Epoch: 26 July)

Date Brightness Start Highest point End Pass type
(mag) Time Alt. Az. Time Alt. Az. Time Alt. Az.
27 Jul - 11:30:28 10° S 11:34:40 17° SSE 11:40:19 10° ESE daylight
27 Jul - 13:47:04 10° SW 13:53:59 31° S 14:05:11 10° ESE daylight
27 Jul - 16:06:12 10° WSW 16:14:56 27° SSW 16:28:16 10° SSE daylight
27 Jul - 18:29:52 10° WSW 18:36:40 14° SW 18:44:52 10° S daylight
28 Jul - 11:50:21 10° SSW 11:55:02 21° SSE 12:01:42 10° ESE daylight
28 Jul - 14:07:41 10° SW 14:14:40 30° S 14:25:55 10° SE daylight
28 Jul - 16:27:24 10° WSW 16:35:44 23° SSW 16:47:52 10° SSE daylight
29 Jul - 12:10:30 10° SSW 12:15:30 23° SSE 12:22:50 10° ESE daylight
29 Jul - 14:28:24 10° WSW 14:35:23 28° S 14:46:25 10° SE daylight
29 Jul - 16:49:00 10° WSW 16:56:32 19° SSW 17:06:50 10° SSE daylight
30 Jul - 12:30:50 10° SW 12:36:02 24° SSE 12:43:47 10° ESE daylight
30 Jul - 14:49:16 10° WSW 14:56:08 25° S 15:06:39 10° SE daylight
30 Jul - 17:11:21 10° SW 17:17:19 14° SSW 17:24:47 10° S daylight
31 Jul - 10:35:10 10° S 10:37:40 13° SSE 10:40:36 10° SE daylight
31 Jul - 12:51:20 10° SW 12:56:38 24° S 13:04:35 10° SE daylight
31 Jul - 15:10:21 10° WSW 15:16:55 22° SSW 15:26:30 10° SSE daylight
01 Aug - 10:54:51 10° SSW 10:58:04 15° SSE 11:02:05 10° SE daylight
01 Aug - 13:11:58 10° SW 13:17:17 23° S 13:25:11 10° SE daylight
01 Aug - 15:31:46 10° WSW 15:37:42 18° SSW 15:45:50 10° SSE daylight
02 Aug - 11:14:57 10° SSW 11:18:32 17° SSE 11:23:12 10° SE daylight
02 Aug - 13:32:46 10° SW 13:37:59 21° S 13:45:32 10° SE daylight
02 Aug - 15:53:53 10° SW 15:58:30 14° SSW 16:04:15 10° S daylight
03 Aug - 11:35:17 10° SSW 11:39:04 18° S 11:44:05 10° SE daylight
03 Aug - 13:53:46 10° SW 13:58:42 19° S 14:05:34 10° SSE daylight
04 Aug - 11:55:49 10° SW 11:59:39 18° S 12:04:46 10° SE daylight
04 Aug - 14:15:07 10° SW 14:19:26 16° SSW 14:25:06 10° SSE daylight
05 Aug - 09:59:33 10° S 10:01:16 12° SSE 10:03:08 10° SE daylight
05 Aug - 12:16:33 10° SW 12:20:17 17° S 12:25:11 10° SE daylight
05 Aug - 14:37:15 10° SW 14:40:11 12° SSW 14:43:40 10° S daylight
